Stations météo

réclame
Mon MeteoGroup
Brescia/Ghedi, Italie (16088): Température de l'air & dewpoint: 14.06.2018 07:00:00 - 20.06.2018 07:00:00 (CEST)Brescia/Ghedi, Italie (16088): Vitesse du vent: 14.06.2018 07:00:00 - 20.06.2018 07:00:00 (CEST)Brescia/Ghedi, Italie (16088): Direction du vent: 14.06.2018 07:00:00 - 20.06.2018 07:00:00 (CEST)Brescia/Ghedi, Italie (16088): reduced air pressure: 14.06.2018 07:00:00 - 20.06.2018 07:00:00 (CEST)Brescia/Ghedi, Italie (16088): visibility: 14.06.2018 07:00:00 - 20.06.2018 07:00:00 (CEST)
Date & Time tt [°C] td [°C] ff [km/h] ff [knt] dd ppp [hPa] vv [km]
20.06.2018 07:00:00 21,0 18,0 4 2 N 1020,4 15
20.06.2018 06:00:00 20,8 17,2 5 3 ESE 1020,4 10
20.06.2018 05:00:00 20,8 16,8 5 3 NE 1020,4 10
20.06.2018 04:00:00 21,0 16,8 4 2 N 1020,6 10
20.06.2018 03:00:00 21,0 16,2 4 2 NNE 1020,6 10
20.06.2018 02:00:00 21,0 17,2 5 3 E 1020,6 10
20.06.2018 01:00:00 21,8 15,9 5 3 NNE 1020,6 10
20.06.2018 00:00:00 22,7 14,8 5 3 NE 1020,3 10
19.06.2018 23:00:00 23,0 15,1 9 5 ENE 1019,4 10
19.06.2018 22:00:00 24,7 15,4 8 4 ESE 1018,9 10
19.06.2018 21:00:00 26,4 12,5 8 4 SE 1018,3 10
19.06.2018 20:00:00 28,4 11,5 8 4 SE 1018,1 20
19.06.2018 19:00:00 30,4 9,9 5 3 SSE 1018,3 20
19.06.2018 18:00:00 30,0 9,5 8 4 SE 1018,3 20
19.06.2018 17:00:00 31,2 8,9 8 4 E 1018,5 20
19.06.2018 16:00:00 31,0 9,8 5 3 ESE 1018,7 20
19.06.2018 15:00:00 30,2 9,7 8 4 SSE 1018,9 20
19.06.2018 14:00:00 30,2 10,2 9 5 SSE 1019,3 20
19.06.2018 13:00:00 29,6 11,2 8 4 SSE 1019,5 20
19.06.2018 12:00:00 28,4 11,0 8 4 ESE 1019,9 20
19.06.2018 11:00:00 27,2 10,0 13 7 E 1020,2 20
19.06.2018 10:00:00 26,2 9,1 0 0 NNE 1020,2 20
19.06.2018 09:00:00 24,8 8,7 21 11 E 1019,8 20
19.06.2018 08:00:00 23,2 14,8 11 6 E 1019,1 15
19.06.2018 07:00:00 21,8 14,7 5 3 ENE 1018,3 15
19.06.2018 06:00:00 20,2 12,9 9 5 ENE 1018,0 10
19.06.2018 05:00:00 20,0 16,3 5 3 E 1017,5 10
19.06.2018 04:00:00 20,8 18,0 9 5 ENE 1017,5 10
19.06.2018 03:00:00 22,2 16,7 4 2 E 1017,4 10
19.06.2018 02:00:00 22,8 17,9 5 3 ENE 1017,3 10
19.06.2018 01:00:00 23,0 16,5 5 3 ENE 1017,4 10
19.06.2018 00:00:00 23,0 16,1 4 2 ENE 1017,3 10
18.06.2018 23:00:00 23,2 16,5 8 4 NE 1017,1 10
18.06.2018 22:00:00 24,0 14,7 11 6 ENE 1016,2 10
18.06.2018 21:00:00 27,2 11,2 4 2 S 1015,6 10
18.06.2018 20:00:00 29,4 11,9 5 3 W 1015,4 10
18.06.2018 19:00:00 31,0 9,8 2 1 S 1015,4 10
18.06.2018 18:00:00 30,0 9,5 5 3 S 1015,5 10
18.06.2018 17:00:00 30,1 9,1 4 2 S 1015,7 10
18.06.2018 16:00:00 29,5 11,5 5 3 NNW 1016,2 10
18.06.2018 15:00:00 29,0 12,0 8 4 WNW 1016,6 10
18.06.2018 14:00:00 28,3 11,8 4 2 W 1016,8 20
18.06.2018 13:00:00 27,5 11,9 5 3 WSW 1017,2 20
18.06.2018 12:00:00 26,7 12,7 5 3 SSW 1017,3 20
18.06.2018 11:00:00 25,5 9,4 9 5 SSE 1017,2 20
18.06.2018 10:00:00 23,5 12,5 16 9 ENE 1016,9 20
18.06.2018 09:00:00 21,1 11,7 16 9 ENE 1016,9 20
18.06.2018 08:00:00 20,0 11,5 24 13 E 1015,9 10
18.06.2018 07:00:00 19,0 15,7 15 8 NE 1015,4 10
18.06.2018 06:00:00 18,8 17,1 15 8 NNW 1015,0 10
18.06.2018 05:00:00 19,0 17,3 15 8 NW 1014,6 10
18.06.2018 04:00:00 19,6 18,6 11 6 NW 1014,4 10
18.06.2018 03:00:00 21,6 16,4 11 6 NNW 1013,8 10
18.06.2018 02:00:00 21,6 16,1 9 5 ENE 1013,8 10
18.06.2018 01:00:00 21,6 17,6 8 4 NE 1013,8 10
18.06.2018 00:00:00 22,0 16,7 4 2 NNE 1013,6 10
17.06.2018 23:00:00 22,8 16,6 2 1 NE 1013,1 10
17.06.2018 22:00:00 23,4 15,2 5 3 NNE 1012,5 10
17.06.2018 21:00:00 26,0 13,2 0 0 N 1012,1 10
17.06.2018 20:00:00 29,0 8,1 0 0 N 1011,3 10
17.06.2018 19:00:00 29,0 9,2 0 0 N 1011,5 10
17.06.2018 18:00:00 29,8 9,4 4 2 SW 1011,7 10
17.06.2018 17:00:00 30,0 9,5 8 4 WSW 1011,9 10
17.06.2018 16:00:00 29,8 8,8 4 2 S 1012,3 10
17.06.2018 15:00:00 29,2 9,4 8 4 SSW 1013,3 10
17.06.2018 14:00:00 29,2 11,3 8 4 SSW 1013,5 10
17.06.2018 13:00:00 27,8 11,4 5 3 S 1013,6 10
17.06.2018 12:00:00 27,0 11,9 4 2 WSW 1013,7 10
17.06.2018 11:00:00 26,2 11,9 2 1 SE 1013,6 10
17.06.2018 10:00:00 25,0 11,9 4 2 SSE 1013,6 10
17.06.2018 09:00:00 22,8 15,1 4 2 SSE 1013,7 10
17.06.2018 08:00:00 19,0 16,2 2 1 SSE 1013,7 10
17.06.2018 07:00:00 17,0 16,0 4 2 N 1013,7 15
17.06.2018 06:00:00 18,0 17,2 8 4 NNE 1013,3 10
17.06.2018 05:00:00 18,2 16,5 9 5 E 1013,4 10
17.06.2018 04:00:00 20,4 15,8 8 4 NNE 1013,7 10
17.06.2018 03:00:00 20,4 15,8 5 3 NNE 1013,6 10
17.06.2018 02:00:00 20,8 15,1 4 2 NE 1013,4 10
17.06.2018 01:00:00 21,0 15,3 4 2 NNE 1013,3 10
17.06.2018 00:00:00 21,4 14,5 8 4 ENE 1012,9 10
16.06.2018 23:00:00 21,8 15,2 8 4 ENE 1012,7 10
16.06.2018 22:00:00 23,0 13,5 5 3 SE 1012,5 10
16.06.2018 21:00:00 25,2 10,7 8 4 SSE 1012,0 10
16.06.2018 20:00:00 27,2 9,1 8 4 SE 1011,4 15
16.06.2018 19:00:00 28,0 9,3 5 3 SE 1011,3 15
16.06.2018 18:00:00 28,2 9,5 4 2 WSW 1011,3 15
16.06.2018 17:00:00 27,8 9,1 5 3 SW 1011,5 15
16.06.2018 16:00:00 27,0 9,4 5 3 SSW 1011,8 15
16.06.2018 15:00:00 27,0 9,4 4 2 SSW 1012,0 15
16.06.2018 14:00:00 26,6 9,9 5 3 SSE 1012,3 15
16.06.2018 13:00:00 26,2 9,5 5 3 ENE 1012,5 15
16.06.2018 12:00:00 25,6 9,8 8 4 ESE 1012,8 15
16.06.2018 11:00:00 24,8 9,5 5 3 S 1012,8 15
16.06.2018 10:00:00 23,8 9,4 4 2 W 1012,9 15
16.06.2018 09:00:00 22,4 10,2 2 1 WNW 1013,3 10
16.06.2018 08:00:00 21,0 11,1 2 1 WSW 1012,7 10
16.06.2018 07:00:00 17,4 13,1 4 2 ESE 1012,9 10
16.06.2018 06:00:00 17,0 13,7 2 1 N 1012,9 10
16.06.2018 05:00:00 17,0 14,1 5 3 ESE 1012,9 10
16.06.2018 04:00:00 17,2 14,3 5 3 E 1012,9 10
16.06.2018 03:00:00 19,0 10,8 8 4 ENE 1012,5 10
16.06.2018 02:00:00 19,2 10,7 8 4 ENE 1012,5 10
16.06.2018 01:00:00 20,2 10,9 9 5 ENE 1012,5 10
16.06.2018 00:00:00 21,0 10,5 8 4 ESE 1012,3 10
15.06.2018 23:00:00 21,3 11,6 8 4 ESE 1011,7 10
15.06.2018 22:00:00 21,2 10,4 5 3 SSE 1011,3 10
15.06.2018 21:00:00 23,2 7,3 5 3 S 1011,2 15
15.06.2018 20:00:00 26,0 7,6 4 2 S 1011,1 20
15.06.2018 19:00:00 27,0 8,0 4 2 S 1010,9 20
15.06.2018 18:00:00 27,8 7,6 5 3 SSW 1010,9 20
15.06.2018 17:00:00 27,4 8,8 5 3 SSW 1011,0 20
15.06.2018 16:00:00 26,2 7,3 5 3 SW 1011,2 20
15.06.2018 15:00:00 24,8 9,5 4 2 S 1011,5 20
15.06.2018 14:00:00 25,8 9,6 8 4 WSW 1011,5 20
15.06.2018 13:00:00 25,2 9,9 5 3 SE 1011,8 20
15.06.2018 12:00:00 24,0 9,6 9 5 E 1012,0 20
15.06.2018 11:00:00 23,2 11,3 13 7 SE 1012,5 20
15.06.2018 10:00:00 22,2 11,3 13 7 ESE 1012,4 20
15.06.2018 09:00:00 21,0 12,4 18 10 E 1012,2 20
15.06.2018 08:00:00 20,0 13,2 15 8 E 1011,9 20
15.06.2018 07:00:00 18,0 15,6 11 6 ESE 1011,9 20
15.06.2018 06:00:00 17,5 15,5 8 4 ESE 1011,7 20
15.06.2018 05:00:00 17,5 15,0 8 4 E 1011,2 20
15.06.2018 04:00:00 17,5 15,0 5 3 ENE 1011,2 20
15.06.2018 03:00:00 18,7 15,8 8 4 ENE 1011,1 20
15.06.2018 02:00:00 19,5 16,2 4 2 ESE 1011,1 20
15.06.2018 01:00:00 20,2 15,0 8 4 SE 1011,0 20
15.06.2018 00:00:00 20,8 14,5 5 3 NE 1010,8 20
14.06.2018 23:00:00 21,0 13,7 4 2 E 1010,4 20
14.06.2018 22:00:00 21,4 12,5 5 3 SSE 1009,8 20
14.06.2018 21:00:00 23,5 12,2 8 4 S 1009,2 20
14.06.2018 20:00:00 26,2 7,3 2 1 SW 1007,6 30
14.06.2018 19:00:00 27,2 6,0 5 3 WSW 1007,5 30
14.06.2018 18:00:00 27,4 3,2 4 2 SW 1007,9 30
14.06.2018 17:00:00 27,2 6,0 4 2 S 1008,1 30
14.06.2018 16:00:00 26,0 5,0 8 4 SSW 1008,2 20
14.06.2018 15:00:00 26,0 5,0 8 4 S 1008,5 20
14.06.2018 14:00:00 25,0 5,2 4 2 WSW 1009,4 20
14.06.2018 13:00:00 24,7 4,5 9 5 SE 1009,3 20
14.06.2018 12:00:00 23,0 5,9 9 5 ENE 1009,3 15
14.06.2018 11:00:00 21,8 6,9 4 2 ENE 1009,4 15
14.06.2018 10:00:00 20,6 9,5 4 2 N 1009,3 15
14.06.2018 09:00:00 19,2 10,2 5 3 NE 1008,8 15
14.06.2018 08:00:00 19,6 8,0 11 6 NE 1008,3 15
14.06.2018 07:00:00 19,0 10,0 2 1 NNE 1007,6 10

tt = Température de l'air
td = dewpoint
ff = Vitesse du vent
dd = Direction du vent
ppp = reduced air pressure
vv = visibility

stations d'obs. à proximité